"2010-04-02 00:00:00",1814677,6.606,65.9,11.97,1.255,7.204,101.2486,2.485,3.759,62.88,0,109.7,13.53,3.25,27.9
"2010-04-02 00:00:30",1814678,3.946,77.7,10.36,1.782,5.627,101.2481,2.484,3.662,63.02,0,109.7,13.53,3.24,39.7
"2010-04-02 00:01:00",1814679,8.2,51.28,8.59,2.549,5.225,101.2475,2.482,3.612,64.16,0,109.7,13.53,3.24,13.3
"2010-04-02 00:01:30",1814680,10.3,51.73,6.327,1.271,7.072,101.2416,2.467,3.75,66.57,0,109.7,13.53,3.23,13.7
"2010-04-02 00:02:00",1814681,10.22,50.47,5.562,1.376,8.47,101.2201,2.412,3.784,68.53,0,109.7,13.53,3.17,12.5
"2010-04-02 00:02:30",1814682,8.49,41.15,3.652,0.879,8.71,101.2144,2.398,3.793,69.24,0,109.7,13.53,3.16,3.2
"2010-04-02 00:03:00",1814683,9.14,39.73,5.546,1.013,8.34,101.2152,2.4,3.783,69.45,0,109.7,13.53,3.16,1.7
"2010-04-02 00:03:30",1814684,8.72,38.01,6.125,0.917,8.35,101.2104,2.388,3.763,69.46,0,109.7,13.53,3.15,0.0
"2010-04-02 00:04:00",1814685,8.09,33.42,5.107,0.651,7.99,101.1855,2.324,3.713,69.03,0,109.7,13.53,3.08,355.4
"2010-04-02 00:04:30",1814686,8.07,36.85,4.577,0.906,7.569,101.1819,2.315,3.711,69.51,0,109.7,13.53,3.08,358.9
"2010-04-02 00:05:00",1814687,8.53,42.3,5.078,0.729,7.787,101.1819,2.315,3.705,69.78,0,109.7,13.53,3.08,4.3
"2010-04-02 00:05:30",1814688,8.86,41.98,4.256,1.194,7.416,101.1819,2.315,3.695,69.58,0,109.7,13.53,3.08,4.0
"2010-04-02 00:06:00",1814689,8.75,36.06,4.16,0.737,7.441,101.1788,2.307,3.66,69.51,0,109.7,13.53,3.07,358.1
"2010-04-02 00:06:30",1814690,7.327,34.33,5.533,1.097,5.365,101.1692,2.283,3.498,69.49,0,109.7,13.53,3.04,356.3
"2010-04-02 00:07:00",1814691,7.252,34.19,5.222,1.122,4.941,101.1531,2.241,3.544,70.1,0,109.7,13.53,3.00,356.2
"2010-04-02 00:07:30",1814692,8.05,29.79,8.54,1.338,5.322,101.1511,2.236,3.337,69.63,0,109.7,13.53,3.00,351.8
"2010-04-02 00:08:00",1814693,8.85,30.83,6.676,1.164,7.478,101.1493,2.232,3.553,69.9,0,109.7,13.53,2.99,352.8
"2010-04-02 00:08:30",1814694,8.62,36.57,5.371,1.116,8.62,101.1514,2.237,3.572,70.59,0,109.7,13.53,3.00,358.6
"2010-04-02 00:09:00",1814695,7.691,34.7,4.42,1.058,8.19,101.1474,2.227,3.559,70.19,0,109.7,13.53,2.99,356.7
"2010-04-02 00:09:30",1814696,8.04,33.21,5.518,0.916,8.06,101.1383,2.204,3.546,70.31,0,109.7,13.53,2.96,355.2
"2010-04-02 00:10:00",1814697,7.633,30.14,6.602,1.298,6.159,101.1247,2.169,3.469,70.8,0,109.7,13.53,2.93,352.1
"2010-04-02 00:10:30",1814698,7.617,27.03,7.701,1.303,6.212,101.118,2.152,3.47,71.17,0,109.7,13.53,2.91,349.0
"2010-04-02 00:11:00",1814699,5.789,22.1,4.248,0.992,4.045,101.1194,2.155,3.3,71.12,0,109.7,13.53,2.92,344.1
"2010-04-02 00:11:30",1814700,7.052,15.02,10.67,1.791,7.023,101.1185,2.153,3.439,70.75,0,109.6,13.53,2.91,337.0
"2010-04-02 00:12:00",1814701,5.334,19.39,7.943,1.289,7.054,101.1183,2.153,3.435,69.89,0,109.7,13.53,2.91,341.4
"2010-04-02 00:12:30",1814702,6.627,3.408,9.14,1.906,7.049,101.1177,2.151,3.421,69.79,0,109.7,13.53,2.91,325.4
"2010-04-02 00:13:00",1814703,6.848,355.5,5.987,1.601,5.922,101.1191,2.155,3.389,69.18,0,109.7,13.53,2.91,317.5
"2010-04-02 00:13:30",1814704,4.505,5.359,8.66,1.688,5.964,101.1191,2.155,3.362,68.82,0,109.7,13.53,2.91,327.4
"2010-04-02 00:14:00",1814705,6.967,355.1,6.14,1.358,6.254,101.1174,2.15,3.47,69.13,0,109.7,13.53,2.91,317.1
"2010-04-02 00:14:30",1814706,7.49,351.9,7.195,1.116,6.633,101.1183,2.153,3.422,69.67,0,109.7,13.53,2.91,313.9
"2010-04-02 00:15:00",1814707,7.263,356.1,6.802,1.38,6.581,101.1194,2.155,3.444,70.67,0,109.7,13.53,2.92,318.1
"2010-04-02 00:15:30",1814708,7.689,346,10.46,1.26,6.782,101.1205,2.158,3.421,71.18,0,109.7,13.53,2.92,308.0
"2010-04-02 00:16:00",1814709,7.419,347.7,10.7,1.339,6.292,101.1194,2.155,3.368,70.63,0,109.7,13.53,2.92,309.7
"2010-04-02 00:16:30",1814710,7.524,340.7,8.85,1.344,6.72,101.1197,2.156,3.434,69.94,0,109.7,13.53,2.92,302.7
"2010-04-02 00:17:00",1814711,8.14,351.2,5.791,1.105,7.035,101.1191,2.155,3.432,69.51,0,109.7,13.53,2.91,313.2
"2010-04-02 00:17:30",1814712,7.016,347.4,13.93,1.61,6.867,101.1191,2.155,3.376,69.23,0,109.7,13.53,2.91,309.4
"2010-04-02 00:18:00",1814713,7.905,336.2,8.15,1.287,5.901,101.1203,2.158,3.391,68.78,0,109.7,13.53,2.92,298.2
"2010-04-02 00:18:30",1814714,9.45,337.1,7.399,1.314,7.118,101.1197,2.156,3.425,68.52,0,109.7,13.53,2.92,299.1
"2010-04-02 00:19:00",1814715,9.72,341.3,6.638,1.128,7.31,101.1188,2.154,3.402,67.82,0,109.7,13.53,2.91,303.3
"2010-04-02 00:19:30",1814716,10.15,330.6,7.1,1.05,7.471,101.125,2.17,3.433,67.42,0,109.7,13.54,2.93,292.6
"2010-04-02 00:20:00",1814717,9.36,331.5,4.688,0.868,8.24,101.1366,2.199,3.497,67.48,0,109.7,13.54,2.96,293.5
"2010-04-02 00:20:30",1814718,9.14,337.5,4.615,0.676,8.43,101.1491,2.231,3.501,67.53,0,109.7,13.54,2.99,299.5
"2010-04-02 00:21:00",1814719,10.6,332.7,7.252,0.975,8.33,101.1534,2.242,3.517,67.24,0,109.8,13.54,3.00,294.7
"2010-04-02 00:21:30",1814720,9.96,325.3,4.167,0.836,8.11,101.1519,2.238,3.512,65.87,0,109.7,13.54,3.00,287.3
"2010-04-02 00:22:00",1814721,10.81,332.1,6.458,0.669,8.16,101.1528,2.241,3.519,65.46,0,109.7,13.53,3.00,294.1
"2010-04-02 00:22:30",1814722,10.01,343,4.191,0.911,7.819,101.1593,2.257,3.55,65.54,0,109.7,13.53,3.02,305.0
"2010-04-02 00:23:00",1814723,8.75,338.2,4.25,0.73,7.556,101.1666,2.276,3.551,66.61,0,109.7,13.53,3.04,300.2
"2010-04-02 00:23:30",1814724,9.55,332.6,6.126,0.867,7.557,101.1794,2.308,3.575,67.22,0,109.7,13.53,3.07,294.6
"2010-04-02 00:24:00",1814725,10.39,321.4,12.09,0.99,8.14,101.1853,2.324,3.583,65.02,0,109.7,13.53,3.08,283.4
"2010-04-02 00:24:30",1814726,11.2,307.2,5.824,1.196,8.35,101.1859,2.325,3.566,58.04,0,109.7,13.53,3.09,269.2
"2010-04-02 00:25:00",1814727,11.98,310.5,4.171,0.886,7.521,101.1842,2.321,3.566,58.41,0,109.7,13.53,3.08,272.5
"2010-04-02 00:25:30",1814728,9.9,313.7,7.348,1.241,7.542,101.2006,2.363,3.616,61.76,0,109.7,13.53,3.12,275.7
"2010-04-02 00:26:00",1814729,9.48,315.7,10.72,1.178,6.214,101.2193,2.41,3.499,60.57,0,109.7,13.53,3.17,277.7
"2010-04-02 00:26:30",1814730,9.77,304.2,17.09,1.074,5.894,101.2187,2.409,3.478,59.42,0,109.7,13.53,3.17,266.2
"2010-04-02 00:27:00",1814731,9.81,317.9,6.6,0.979,7.524,101.2204,2.413,3.6,58.79,0,109.7,13.53,3.17,279.9
"2010-04-02 00:27:30",1814732,9.55,323.6,8.16,1.915,8.46,101.2489,2.486,3.66,61.85,0,109.7,13.53,3.25,285.6
"2010-04-02 00:28:00",1814733,11.09,318.2,6.04,0.975,9.16,101.2532,2.497,3.721,59.89,0,109.7,13.54,3.26,280.2
"2010-04-02 00:28:30",1814734,11.51,313.4,7.912,0.973,8.86,101.2529,2.496,3.738,58.58,0,109.7,13.53,3.26,275.4
"2010-04-02 00:29:00",1814735,11.17,318.3,6.537,1.271,8.42,101.2603,2.515,3.724,56.89,0,109.7,13.53,3.28,280.3
"2010-04-02 00:29:30",1814736,12.29,318.7,5.393,1.229,8.29,101.2773,2.558,3.764,57.85,0,109.7,13.53,3.32,280.7
"2010-04-02 00:30:00",1814737,12.37,315.3,3.857,0.597,8.29,101.2854,2.579,3.782,59.88,0,109.7,13.53,3.34,277.3
"2010-04-02 00:30:30",1814738,13.82,309.7,4.365,0.84,8.87,101.2869,2.583,3.81,60.13,0,109.7,13.53,3.34,271.7
"2010-04-02 00:31:00",1814739,12.97,314.7,7.171,0.845,9.07,101.2849,2.578,3.81,55.45,0,109.7,13.53,3.34,276.7
"2010-04-02 00:31:30",1814740,12.62,320.7,6.524,0.951,8.97,101.2846,2.577,3.825,54.08,0,109.7,13.52,3.34,282.7
"2010-04-02 00:32:00",1814741,12.83,312.6,4.629,1.231,8.98,101.2973,2.609,3.843,51.39,0,109.7,13.52,3.37,274.6
"2010-04-02 00:32:30",1814742,15.41,299.9,7.468,1.827,9.56,101.3117,2.646,3.858,49.82,0,109.7,13.52,3.41,261.9
"2010-04-02 00:33:00",1814743,15.21,301.7,4.902,1.182,9.62,101.3185,2.664,3.886,51.56,0,109.7,13.52,3.42,263.7
"2010-04-02 00:33:30",1814744,15.36,300.1,5.818,0.908,10.15,101.34,2.719,3.908,48.46,0,109.7,13.52,3.48,262.1
"2010-04-02 00:34:00",1814745,15.15,307.5,4.55,0.822,9.8,101.3522,2.75,3.919,45.44,0,109.7,13.52,3.51,269.5
"2010-04-02 00:34:30",1814746,14.29,312.2,3.703,1.509,9.65,101.3519,2.749,3.943,45.69,0,109.7,13.52,3.51,274.2
"2010-04-02 00:35:00",1814747,12.97,313,3.986,0.783,9.57,101.357,2.762,3.95,46.42,0,109.7,13.53,3.52,275.0
"2010-04-02 00:35:30",1814748,15.89,308.5,3.747,1.496,9.94,101.3765,2.812,3.974,43.82,0,109.7,13.52,3.57,270.5
"2010-04-02 00:36:00",1814749,16.88,307.2,5.184,0.935,10.42,101.3844,2.832,4.009,39.93,0,109.7,13.53,3.59,269.2
"2010-04-02 00:36:30",1814750,15.07,306.4,4.177,0.982,10.01,101.3859,2.835,4.031,40.26,0,109.7,13.53,3.60,268.4
"2010-04-02 00:37:00",1814751,16.94,304.4,4.978,0.914,9.88,101.4099,2.897,4.059,39.46,0,109.7,13.53,3.66,266.4
"2010-04-02 00:37:30",1814752,15.38,302.5,3.635,1.061,9.7,101.4193,2.921,4.08,40.05,0,109.7,13.53,3.68,264.5
"2010-04-02 00:38:00",1814753,15.92,300.3,4.797,0.781,10.02,101.4303,2.949,4.107,34.91,0,109.7,13.53,3.71,262.3
"2010-04-02 00:38:30",1814754,15.97,301.3,5.189,0.999,10.13,101.4504,3,4.124,34.45,0,109.7,13.53,3.76,263.3
"2010-04-02 00:39:00",1814755,15.04,308.4,3.678,0.994,9.78,101.4526,3.006,4.161,34.44,0,109.7,13.53,3.77,270.4
"2010-04-02 00:39:30",1814756,14.28,307.6,3.457,0.918,9.57,101.4645,3.036,4.187,34.15,0,109.7,13.53,3.80,269.6
"2010-04-02 00:40:00",1814757,13.89,304.2,5.183,0.725,9.79,101.4866,3.093,4.216,34.57,0,109.7,13.53,3.86,266.2
"2010-04-02 00:40:30",1814758,14.69,307,4.312,0.882,9.49,101.4883,3.097,4.248,34.91,0,109.7,13.53,3.86,269.0
"2010-04-02 00:41:00",1814759,14.55,316.2,3.742,0.835,9.56,101.5005,3.128,4.248,34.28,0,109.6,13.53,3.89,278.2
"2010-04-02 00:41:30",1814760,13.18,311.9,4.276,1.025,9.66,101.5177,3.172,4.298,34.2,0,109.7,13.53,3.94,273.9
"2010-04-02 00:42:00",1814761,13.31,310.3,4.83,1.013,9.51,101.5191,3.176,4.323,34.04,0,109.7,13.53,3.94,272.3
"2010-04-02 00:42:30",1814762,13.51,305.1,4.124,0.715,9.63,101.5217,3.182,4.342,34.83,0,109.7,13.53,3.95,267.1
"2010-04-02 00:43:00",1814763,13.89,313,5.215,0.634,9.56,101.5338,3.213,4.391,35.45,0,109.7,13.53,3.98,275.0
"2010-04-02 00:43:30",1814764,12.8,309.9,4.148,0.967,9.54,101.5476,3.248,4.396,35.82,0,109.7,13.53,4.01,271.9
"2010-04-02 00:44:00",1814765,13.49,310.7,4.363,0.529,9.65,101.5505,3.256,4.42,35.5,0,109.7,13.53,4.02,272.7
"2010-04-02 00:44:30",1814766,13.89,304.7,4.265,0.884,7.613,101.5493,3.253,4.425,34.49,0,109.7,13.53,4.02,266.7
"2010-04-02 00:45:00",1814767,12.47,310.1,4.841,1.141,9.62,101.5508,3.256,4.459,33.2,0,109.7,13.53,4.02,272.1
"2010-04-02 00:45:30",1814768,11.49,320.5,3.948,0.968,9.04,101.5601,3.28,4.461,33.25,0,109.7,13.53,4.04,282.5
"2010-04-02 00:46:00",1814769,12.1,324,4.747,0.879,9.12,101.5674,3.299,4.489,34.41,0,109.7,13.53,4.06,286.0
"2010-04-02 00:46:30",1814770,11.56,323.3,4.233,0.83,9.37,101.5781,3.326,4.503,34.39,0,109.7,13.52,4.09,285.3
"2010-04-02 00:47:00",1814771,11.67,324.6,4.444,0.695,9.38,101.5801,3.331,4.529,35.13,0,109.7,13.52,4.09,286.6
"2010-04-02 00:47:30",1814772,12.64,322.6,3.752,0.798,9.13,101.5813,3.334,4.548,34.79,0,109.7,13.52,4.10,284.6
"2010-04-02 00:48:00",1814773,12.44,325.9,3.703,0.876,9.42,101.5798,3.331,4.572,34.28,0,109.7,13.52,4.09,287.9
"2010-04-02 00:48:30",1814774,11.83,323.8,3.883,0.728,9.22,101.5807,3.333,4.563,34.49,0,109.7,13.52,4.10,285.8
"2010-04-02 00:49:00",1814775,11.37,320.9,4.65,0.926,9.62,101.5798,3.331,4.577,34.56,0,109.7,13.52,4.09,282.9
"2010-04-02 00:49:30",1814776,13.06,322.5,3.884,1.628,9.71,101.5798,3.331,4.59,33.89,0,109.7,13.52,4.09,284.5
"2010-04-02 00:50:00",1814777,15.54,326.4,2.68,0.949,5.789,101.5821,3.336,4.583,32.27,0,109.7,13.52,4.10,288.4
"2010-04-02 00:50:30",1814778,15.79,319.3,4.209,0.818,8.43,101.5866,3.348,4.596,31.69,0,109.7,13.52,4.11,281.3
"2010-04-02 00:51:00",1814779,15.42,318.1,4.458,0.647,8.68,101.5946,3.368,4.623,31.12,0,109.7,13.52,4.13,280.1
"2010-04-02 00:51:30",1814780,14.35,319.7,4.923,0.81,10.81,101.5996,3.381,4.632,30.88,0,109.7,13.52,4.14,281.7
"2010-04-02 00:52:00",1814781,14.09,322.8,3.827,0.656,10.68,101.6095,3.406,4.633,30.6,0,109.7,13.52,4.17,284.8
"2010-04-02 00:52:30",1814782,15.38,318.9,6.569,1.148,10.64,101.6126,3.414,4.642,30.78,0,109.7,13.52,4.18,280.9
"2010-04-02 00:53:00",1814783,14.4,318.3,5.586,0.692,10.62,101.6106,3.409,4.654,31.17,0,109.7,13.52,4.17,280.3
"2010-04-02 00:53:30",1814784,12.23,320.5,3.988,0.972,10.17,101.6103,3.408,4.647,30.95,0,109.8,13.52,4.17,282.5
"2010-04-02 00:54:00",1814785,12.5,315.4,3.483,0.838,9.86,101.6086,3.404,4.671,31.1,0,109.7,13.52,4.17,277.4
"2010-04-02 00:54:30",1814786,12.42,315.9,4.348,0.688,9.87,101.6095,3.406,4.687,30.97,0,109.8,13.52,4.17,277.9
"2010-04-02 00:55:00",1814787,11.9,321.4,3.724,0.742,7.243,101.6086,3.404,4.684,31.12,0,109.7,13.52,4.17,283.4
"2010-04-02 00:55:30",1814788,11.47,324.8,4.387,1.002,9.24,101.6139,3.418,4.695,31.01,0,109.7,13.52,4.18,286.8
"2010-04-02 00:56:00",1814789,12.29,322.9,4.654,0.816,9.1,101.6179,3.428,4.697,31.29,0,109.7,13.52,4.19,284.9
"2010-04-02 00:56:30",1814790,12.08,319.7,4.191,0.748,9.09,101.617,3.425,4.697,31.67,0,109.8,13.52,4.19,281.7
"2010-04-02 00:57:00",1814791,12.89,324.3,2.736,0.885,9.25,101.6179,3.428,4.697,31.48,0,109.8,13.52,4.19,286.3
"2010-04-02 00:57:30",1814792,11.17,317.1,5.037,0.748,9.12,101.6153,3.421,4.723,31.44,0,109.8,13.52,4.19,279.1
"2010-04-02 00:58:00",1814793,10.96,312.5,4.126,0.732,8.84,101.6184,3.429,4.725,31.95,0,109.8,13.52,4.19,274.5
"2010-04-02 00:58:30",1814794,10.93,318.6,6.549,1.273,8.81,101.6206,3.435,4.741,32.03,0,109.8,13.52,4.20,280.6
"2010-04-02 00:59:00",1814795,11.79,321.6,3.447,0.925,8.87,101.6204,3.434,4.727,31.11,0,109.7,13.52,4.20,283.6
"2010-04-02 00:59:30",1814796,12,316.8,5.347,1.124,8.9,101.6246,3.445,4.744,30.9,0,109.8,13.52,4.21,278.8
"2010-04-02 01:00:00",1814797,11.57,317.4,5.73,0.894,8.89,101.6279,3.453,4.735,30.75,0,109.8,13.52,4.22,279.4
"2010-04-02 01:00:30",1814798,10.38,317.3,5.204,1.197,8.56,101.6274,3.452,4.727,30.52,0,109.7,13.52,4.22,279.3
"2010-04-02 01:01:00",1814799,9.96,319.7,3.862,0.971,8.39,101.6285,3.455,4.747,30.54,0,109.8,13.52,4.22,281.7
"2010-04-02 01:01:30",1814800,12.24,325.9,4.488,0.976,8.19,101.6299,3.458,4.757,30.9,0,109.8,13.52,4.22,287.9
"2010-04-02 01:02:00",1814801,12.18,331.6,7.081,0.81,8.36,101.6296,3.458,4.756,30.99,0,109.8,13.52,4.22,293.6
"2010-04-02 01:02:30",1814802,11.72,334.2,5.457,0.786,8.61,101.6293,3.457,4.756,31.46,0,109.8,13.52,4.22,296.2
"2010-04-02 01:03:00",1814803,12.18,337.7,3.249,0.602,8.39,101.6299,3.458,4.751,31.57,0,109.7,13.52,4.22,299.7
"2010-04-02 01:03:30",1814804,11.14,337.4,3.737,0.787,8.37,101.6293,3.457,4.766,31.47,0,109.8,13.52,4.22,299.4
"2010-04-02 01:04:00",1814805,10.22,337.9,5.108,0.571,8.47,101.6293,3.457,4.768,31.71,0,109.8,13.52,4.22,299.9
"2010-04-02 01:04:30",1814806,10.3,344.9,2.679,0.665,8.21,101.6293,3.457,4.77,31.87,0,109.8,13.52,4.22,306.9
"2010-04-02 01:05:00",1814807,9.81,344.2,2.55,0.734,8.03,101.6293,3.457,4.758,31.91,0,109.8,13.52,4.22,306.2
"2010-04-02 01:05:30",1814808,9.03,343,5.275,1.169,7.043,101.6293,3.457,4.697,32.18,0,109.7,13.52,4.22,305.0
"2010-04-02 01:06:00",1814809,8.16,336.7,5.844,0.97,5.285,101.6293,3.457,4.673,31.86,0,109.8,13.52,4.22,298.7
"2010-04-02 01:06:30",1814810,8.62,340.1,7.329,0.776,4.883,101.6293,3.457,4.545,31.45,0,109.8,13.52,4.22,302.1
"2010-04-02 01:07:00",1814811,9.48,344.7,6.217,1.018,7.688,101.6293,3.457,4.719,31.64,0,109.8,13.52,4.22,306.7
"2010-04-02 01:07:30",1814812,9.73,349.9,4.215,0.679,8.96,101.6293,3.457,4.777,31.69,0,109.8,13.52,4.22,311.9
"2010-04-02 01:08:00",1814813,9.83,354.3,3.309,0.776,8.85,101.6293,3.457,4.776,31.75,0,109.8,13.52,4.22,316.3
"2010-04-02 01:08:30",1814814,8.77,353.7,5.536,1.581,7.652,101.6293,3.457,4.724,31.98,0,109.8,13.53,4.22,315.7
"2010-04-02 01:09:00",1814815,5.978,0.763,5.864,1.794,7.186,101.6293,3.457,4.691,32.91,0,109.8,13.53,4.22,322.8
"2010-04-02 01:09:30",1814816,3.704,5.995,6.173,1.577,4.057,101.6293,3.457,4.535,35.27,0,109.8,13.53,4.22,328.0
"2010-04-02 01:10:00",1814817,6.47,3.797,7.25,2.149,6.284,101.6293,3.457,4.73,37.4,0,109.8,13.53,4.22,325.8
"2010-04-02 01:10:30",1814818,7.466,23.51,9.08,1.576,7.146,101.6293,3.457,4.689,39.59,0,109.8,13.53,4.22,345.5
"2010-04-02 01:11:00",1814819,8.34,33.68,6.159,0.986,8.28,101.629,3.456,4.79,43.62,0,109.8,13.53,4.22,355.7
"2010-04-02 01:11:30",1814820,7.699,34.34,4.9,1.021,7.864,101.6197,3.432,4.704,46.49,0,109.8,13.53,4.20,356.3
"2010-04-02 01:12:00",1814821,7.172,33.07,6.992,1.177,6.962,101.6053,3.395,4.683,48.69,0,109.8,13.53,4.16,355.1
"2010-04-02 01:12:30",1814822,7.933,39.99,5.826,1.432,6.184,101.5957,3.371,4.717,51.14,0,109.8,13.53,4.13,2.0
"2010-04-02 01:13:00",1814823,6.933,39.22,10.87,1.727,6.928,101.5855,3.345,4.665,52.08,0,109.8,13.53,4.11,1.2
"2010-04-02 01:13:30",1814824,6.536,36.44,6.409,1.454,6.89,101.5631,3.288,4.661,50.8,0,109.8,13.53,4.05,358.4
"2010-04-02 01:14:00",1814825,7.609,39.56,6.336,1.24,7.173,101.5609,3.282,4.645,51.11,0,109.8,13.53,4.05,1.6
"2010-04-02 01:14:30",1814826,7.841,40.36,6.194,1.31,7.816,101.538,3.224,4.602,52.53,0,109.8,13.53,3.99,2.4
"2010-04-02 01:15:00",1814827,8.23,41.99,7.504,1.411,6.949,101.5269,3.195,4.56,52.72,0,109.8,13.53,3.96,4.0
"2010-04-02 01:15:30",1814828,8.06,42.85,4.398,0.855,8.93,101.5026,3.133,4.615,54.21,0,109.8,13.53,3.90,4.8
"2010-04-02 01:16:00",1814829,7.941,43.42,4.442,0.763,8.17,101.4935,3.11,4.57,55.85,0,109.8,13.53,3.87,5.4
"2010-04-02 01:16:30",1814830,8.63,43.59,6.111,1.091,7.069,101.4771,3.068,4.496,56.18,0,109.8,13.53,3.83,5.6
"2010-04-02 01:17:00",1814831,9.2,45.05,5.411,1.192,7.29,101.4596,3.024,4.444,56.32,0,109.8,13.53,3.79,7.0
"2010-04-02 01:17:30",1814832,9.62,50.45,6.898,1.033,7.527,101.4503,3,4.468,58.57,0,109.8,13.53,3.76,12.5
"2010-04-02 01:18:00",1814833,10.22,50.52,5.292,0.89,8.34,101.4257,2.937,4.451,61.41,0,109.7,13.53,3.70,12.5
"2010-04-02 01:18:30",1814834,10.15,45.05,4.711,1.15,8.44,101.4214,2.926,4.355,59.18,0,109.8,13.53,3.69,7.0
"2010-04-02 01:19:00",1814835,9.71,45.32,5.346,1.027,8.59,101.3974,2.865,4.358,54.14,0,109.8,13.53,3.63,7.3
"2010-04-02 01:19:30",1814836,9.07,42.81,4.382,0.77,8.3,101.3917,2.85,4.3,53.38,0,109.8,13.53,3.61,4.8
"2010-04-02 01:20:00",1814837,9.04,42.76,4.418,0.68,8.29,101.3753,2.809,4.272,52.6,0,109.8,13.52,3.57,4.8
"2010-04-02 01:20:30",1814838,8.22,40.08,6.214,1.384,6.901,101.3578,2.764,4.231,52.83,0,109.8,13.52,3.53,2.1
"2010-04-02 01:21:00",1814839,7.563,37.07,6.345,1.433,5.969,101.3578,2.764,4.08,52.52,0,109.8,13.52,3.53,359.1
"2010-04-02 01:21:30",1814840,7.046,38.24,7.883,1.24,3.987,101.3575,2.763,3.985,52.41,0,109.8,13.53,3.52,0.2
"2010-04-02 01:22:00",1814841,9.34,47.14,4.375,1.119,8.3,101.3439,2.728,4.158,54.61,0,109.8,13.53,3.49,9.1
"2010-04-02 01:22:30",1814842,7.981,40.8,3.33,1.257,8.82,101.3252,2.681,4.144,54.33,0,109.8,13.53,3.44,2.8
"2010-04-02 01:23:00",1814843,10.09,46.84,3.581,0.879,8.48,101.3238,2.677,4.087,52.72,0,109.8,13.53,3.44,8.8
"2010-04-02 01:23:30",1814844,10.12,47.65,4.344,0.77,8.56,101.3238,2.677,4.061,51.93,0,109.8,13.53,3.44,9.7
"2010-04-02 01:24:00",1814845,10.27,49.02,2.553,0.664,7.998,101.3238,2.677,4.042,51.66,0,109.8,13.53,3.44,11.0
"2010-04-02 01:24:30",1814846,9.28,45.96,5.237,1.44,7.446,101.3204,2.668,4.019,53.12,0,109.8,13.53,3.43,8.0
"2010-04-02 01:25:00",1814847,7.889,42.88,5.74,1.135,7.022,101.3111,2.645,3.98,54.98,0,109.8,13.53,3.41,4.9
"2010-04-02 01:25:30",1814848,8.43,43.24,6.808,1.175,5.37,101.2995,2.615,3.907,57.24,0,109.8,13.53,3.38,5.2
"2010-04-02 01:26:00",1814849,9.04,54.72,7.689,1.266,6.941,101.2921,2.596,3.942,58.84,0,109.8,13.53,3.36,16.7
"2010-04-02 01:26:30",1814850,12.87,70.25,5.372,1.478,8.12,101.2902,2.591,4.009,59.87,0,109.8,13.53,3.35,32.2
"2010-04-02 01:27:00",1814851,14.05,72.55,4.262,0.393,8.18,101.2899,2.59,3.997,63.09,0,109.8,13.53,3.35,34.6
"2010-04-02 01:27:30",1814852,14.25,66.89,6.217,1.08,7.654,101.2834,2.574,3.965,65.43,0,109.8,13.53,3.33,28.9
"2010-04-02 01:28:00",1814853,11.99,61.48,3.872,0.827,7.527,101.2528,2.496,3.967,66.72,0,109.8,13.53,3.26,23.5
"2010-04-02 01:28:30",1814854,11.86,62.77,4.274,0.863,7.563,101.2146,2.398,3.909,66.77,0,109.8,13.53,3.16,24.8
"2010-04-02 01:29:00",1814855,11.33,63,4.248,0.695,7.836,101.179,2.308,3.847,66.67,0,109.7,13.53,3.07,25.0
"2010-04-02 01:29:30",1814856,12.01,57.72,3.611,0.807,7.582,101.1408,2.21,3.78,66.59,0,109.8,13.53,2.97,19.7
"2010-04-02 01:30:00",1814857,11.69,70,6.018,0.669,7.92,101.1004,2.107,3.712,67.11,0,109.8,13.53,2.87,32.0
"2010-04-02 01:30:30",1814858,11.24,73.3,4.667,0.69,7.972,101.0715,2.033,3.631,67.94,0,109.7,13.53,2.79,35.3
"2010-04-02 01:31:00",1814859,10.69,69.01,3.709,0.829,8.35,101.0441,1.963,3.572,68.26,0,109.7,13.53,2.72,31.0
"2010-04-02 01:31:30",1814860,10.11,72.7,4.322,0.688,8.1,101.0183,1.898,3.517,68.5,0,109.7,13.53,2.66,34.7
"2010-04-02 01:32:00",1814861,9.91,74.52,3.464,0.709,7.813,100.9929,1.833,3.423,69.02,0,109.7,13.53,2.59,36.5
"2010-04-02 01:32:30",1814862,9.88,75.1,3.361,0.793,7.711,100.9801,1.8,3.373,69.31,0,109.7,13.53,2.56,37.1
"2010-04-02 01:33:00",1814863,9.28,67.5,4.425,0.873,7.62,100.9538,1.733,3.327,69.42,0,109.7,13.53,2.49,29.5
"2010-04-02 01:33:30",1814864,9.47,65.74,4.186,0.798,7.213,100.9405,1.699,3.269,69.72,0,109.7,13.53,2.46,27.7
"2010-04-02 01:34:00",1814865,9.05,68.68,5.85,0.887,7.35,100.9179,1.641,3.237,69.83,0,109.7,13.54,2.40,30.7
"2010-04-02 01:34:30",1814866,10.05,72.12,5.034,0.885,6.764,100.9063,1.612,3.163,69.63,0,109.7,13.54,2.37,34.1
"2010-04-02 01:35:00",1814867,10.14,72.83,3.877,0.665,6.317,100.8828,1.552,3.123,70.05,0,109.7,13.53,2.31,34.8
"2010-04-02 01:35:30",1814868,9.48,75.61,4.256,0.741,6.537,100.8755,1.533,3.1,70.36,0,109.7,13.53,2.29,37.6
"2010-04-02 01:36:00",1814869,9.91,79.05,2.678,0.585,6.664,100.854,1.478,3.033,70.47,0,109.7,13.53,2.24,41.1
"2010-04-02 01:36:30",1814870,9.87,78.57,3.434,0.66,6.786,100.8486,1.465,3.011,70.54,0,109.7,13.53,2.22,40.6
"2010-04-02 01:37:00",1814871,9.34,77.54,2.767,0.757,6.691,100.8313,1.421,2.973,70.65,0,109.7,13.53,2.18,39.5
"2010-04-02 01:37:30",1814872,9.15,76.01,2.021,0.779,6.391,100.8158,1.381,2.956,70.66,0,109.7,13.53,2.14,38.0
"2010-04-02 01:38:00",1814873,9.82,75.41,4.256,0.519,6.417,100.8161,1.382,2.892,70.44,0,109.7,13.53,2.14,37.4
"2010-04-02 01:38:30",1814874,9.99,76.18,3.466,0.53,6.445,100.8017,1.345,2.858,70.15,0,109.7,13.53,2.10,38.2
"2010-04-02 01:39:00",1814875,10.5,72.69,4.773,0.915,6.207,100.7859,1.304,2.832,70.11,0,109.7,13.53,2.06,34.7
"2010-04-02 01:39:30",1814876,11.2,67.47,3.021,0.699,5.799,100.7833,1.298,2.792,70.38,0,109.7,13.53,2.05,29.5
"2010-04-02 01:40:00",1814877,11.46,64.09,3.139,0.853,5.868,100.755,1.226,2.756,70.61,0,109.7,13.53,1.98,26.1
"2010-04-02 01:40:30",1814878,11.97,60.12,3.158,0.605,5.992,100.7352,1.175,2.707,70.59,0,109.7,13.54,1.93,22.1
"2010-04-02 01:41:00",1814879,12.6,59.62,2.226,0.641,6.4,100.7044,1.097,2.661,70.38,0,109.7,13.54,1.85,21.6
"2010-04-02 01:41:30",1814880,12.53,59.96,2.91,0.729,6.431,100.6722,1.014,2.6,70.45,0,109.7,13.54,1.77,22.0
"2010-04-02 01:42:00",1814881,12.67,60.33,4.004,0.657,6.586,100.6362,0.923,2.564,70.89,0,109.7,13.54,1.68,22.3
"2010-04-02 01:42:30",1814882,12.48,62.17,3.235,0.607,6.689,100.604,0.841,2.469,71.11,0,109.7,13.54,1.60,24.2
"2010-04-02 01:43:00",1814883,11.86,65.06,1.996,0.693,7.184,100.5737,0.763,2.381,71.42,0,109.7,13.54,1.52,27.1
"2010-04-02 01:43:30",1814884,10.79,70.54,4.653,0.525,7.505,100.5562,0.719,2.296,71.96,0,109.7,13.54,1.47,32.5
"2010-04-02 01:44:00",1814885,9.89,77.93,3.801,0.658,7.496,100.5378,0.672,2.254,72.36,0,109.7,13.54,1.43,39.9
"2010-04-02 01:44:30",1814886,9.48,84.2,3.933,0.656,7.464,100.5262,0.642,2.214,72.56,0,109.7,13.54,1.40,46.2
"2010-04-02 01:45:00",1814887,9.5,86.7,3.802,0.732,7.384,100.5271,0.644,2.16,72.65,0,109.7,13.54,1.40,48.7
"2010-04-02 01:45:30",1814888,10.05,81.7,4.181,0.717,6.668,100.5262,0.642,2.134,72.79,0,109.7,13.54,1.40,43.7
"2010-04-02 01:46:00",1814889,10.19,75.21,3.966,0.667,6.164,100.52,0.626,2.092,73.09,0,109.7,13.54,1.38,37.2
"2010-04-02 01:46:30",1814890,10.18,71.35,1.561,0.765,5.699,100.5079,0.595,2.075,73.45,0,109.7,13.54,1.35,33.3
"2010-04-02 01:47:00",1814891,10.25,71.15,3.357,0.523,6.097,100.4991,0.573,2.063,73.77,0,109.7,13.54,1.33,33.2
"2010-04-02 01:47:30",1814892,10,74.17,2.882,0.794,6.101,100.5017,0.58,2.042,74.07,0,109.7,13.54,1.33,36.2
"2010-04-02 01:48:00",1814893,10.21,78.43,2.991,0.826,6.546,100.5028,0.582,2.014,74.34,0,109.7,13.54,1.34,40.4
"2010-04-02 01:48:30",1814894,9.97,82.7,2.552,0.71,6.606,100.5002,0.576,1.993,74.34,0,109.7,13.54,1.33,44.7